This demonstration page uses our WeatherBlox Daily Observations layout. Learn more.

Left ArrowRight Arrow

Hourly Observations for May 3, 2020

Temp ( °F °C ) Dew Point ( °F °C ) Humidity (%) Winds ( mph kmh ) Pressure ( in mb ) Visibility ( mi km ) Precip ( " mm )
12:51 am 00:51 Clear 76 24.4 28 -2.2 17 17 NW 13 20 29.83 1010 10 16.0934 0 0
1:51 am 01:51 Clear 73 22.8 27 -2.8 18 18 NNW 10 17 29.84 1010 10 16.0934 0 0
2:51 am 02:51 Clear 71 21.7 28 -2.2 20 20 NW 8 13 29.84 1011 10 16.0934 0 0
3:51 am 03:51 Clear 67 19.4 28 -2.2 23 23 W 3 6 29.85 1011 10 16.0934 0 0
4:51 am 04:51 Clear 61 16.1 28 -2.2 29 29 E 5 7 29.87 1012 10 16.0934 0 0
5:51 am 05:51 Sunny 60 15.6 29 -1.7 31 31 SSE 5 7 29.89 1012 10 16.0934 0 0
6:51 am 06:51 Sunny 67 19.4 31 -0.6 26 26 SSE 3 6 29.9 1013 10 16.0934 0 0
7:51 am 07:51 Sunny 74 23.3 31 -0.6 20 20 SE 3 6 29.91 1013 10 16.0934 0 0
8:51 am 08:51 Sunny 80 26.7 31 -0.6 17 17 VRB 3 6 29.9 1013 10 16.0934 0 0
9:51 am 09:51 Sunny 84 28.9 32 0 15 15 Calm 29.88 1012 10 16.0934 0 0
10:51 am 10:51 Sunny 87 30.6 36 2.2 16 16 VRB 6 9 29.86 1011 10 16.0934 0 0
11:51 am 11:51 Sunny 89 31.7 35 1.7 15 15 VRB 6 9 29.83 1010 10 16.0934 0 0
12:51 pm 12:51 Sunny 91 32.8 34 1.1 13 13 N 6 9 29.79 1009 10 16.0934 0 0
1:51 pm 13:51 Sunny 92 33.3 34 1.1 13 13 NE 8 13 29.77 1008 10 16.0934 0 0
2:51 pm 14:51 Sunny 94 34.4 33 0.6 12 12 VRB 7 11 29.75 1007 10 16.0934 0 0
3:51 pm 15:51 Sunny 94 34.4 34 1.1 12 12 W 10 17 29.72 1007 10 16.0934 0 0
4:51 pm 16:51 Sunny 94 34.4 35 1.7 13 13 WNW 13 20 29.73 1007 10 16.0934 0 0
5:51 pm 17:51 Sunny 91 32.8 32 0 12 12 NW 21 33 29.74 1007 10 16.0934 0 0
6:51 pm 18:51 Sunny 87 30.6 30 -1.1 13 13 NW 17 28 29.75 1008 10 16.0934 0 0
7:51 pm 19:51 Clear 83 28.3 29 -1.7 14 14 NW 14 22 29.76 1008 10 16.0934 0 0
8:51 pm 20:51 Clear 82 27.8 28 -2.2 14 14 NW 15 24 29.78 1008 10 16.0934 0 0
9:51 pm 21:51 Clear 80 26.7 28 -2.2 15 15 NW 14 22 29.79 1009 10 16.0934 0 0
10:51 pm 22:51 Clear 73 22.8 29 -1.7 19 19 WNW 7 11 29.8 1009 10 16.0934 0 0
11:51 pm 23:51 Clear 71 21.7 29 -1.7 21 21 NW 7 11 29.8 1009 10 16.0934 0 0

Powered by AerisWeather